This demonstration page uses our WeatherBlox Daily Observations layout. Learn more.

Left ArrowRight Arrow

Hourly Observations for June 18, 2018

Temp ( °F °C ) Dew Point ( °F °C ) Humidity (%) Winds ( mph kmh ) Pressure ( in mb ) Visibility ( mi km ) Precip ( " mm )
12:54 am 00:54 Clear 83 28.3 68 20 61 61 S 13 20 29.84 1011 10 16 0.00 0.00
1:54 am 01:54 Clear 83 28.3 68 20 61 61 S 13 20 29.85 1011 10 16 0.00 0.00
2:54 am 02:54 Clear 81 27.2 68 20 65 65 SSW 8 13 29.86 1011 10 16 0.00 0.00
3:54 am 03:54 Clear 79 26.1 68 20 69 69 S 7 11 29.86 1011 10 16 0.00 0.00
4:54 am 04:54 Clear 75 23.9 67 19.4 76 76 S 7 11 29.88 1012 10 16 0.00 0.00
5:54 am 05:54 Mostly Cloudy 74 23.3 68 20 82 82 S 6 9 29.88 1012 10 16 0.00 0.00
6:54 am 06:54 Cloudy 76 24.4 69 20.6 79 79 S 6 9 29.90 1013 10 16 0.00 0.00
7:54 am 07:54 Partly Cloudy 75 23.9 70 21.1 84 84 SSE 6 9 29.91 1013 10 16 0.00 0.03
8:54 am 08:54 Mostly Sunny 81 27.2 70 21.1 69 69 S 8 13 29.90 1013 10 16 0.00 0.00
9:54 am 09:54 Sunny 85 29.4 71 21.7 63 63 S 14 22 29.89 1012 10 16 0.00 0.00
10:54 am 10:54 Sunny 88 31.1 71 21.7 57 57 SSW 13 20 29.89 1012 10 16 0.00 0.00
11:54 am 11:54 Sunny 91 32.8 71 21.7 52 52 S 15 24 29.88 1012 10 16 0.00 0.00
12:54 pm 12:54 Partly Cloudy 93 33.9 71 21.7 49 49 S 14 22 29.87 1012 10 16 0.00 0.00
1:54 pm 13:54 Partly Cloudy 91 32.8 70 21.1 50 50 SSW 15 24 29.85 1011 10 16 0.00 0.00
2:54 pm 14:54 Partly Cloudy 95 35 71 21.7 46 46 S 22 35 29.83 1010 10 16 0.00 0.03
3:54 pm 15:54 Mostly Sunny 95 35 72 22.2 47 47 SSE 16 26 29.78 1009 10 16 0.00 0.00
4:28 pm 16:28 Partly Cloudy with Nearby Thunderstorms 90 32.2 69 20.6 50 50 S 24 39 29.74 1007 10 16 0.00 0.00
4:42 pm 16:42 Mostly Cloudy with Thunderstorms 84 28.9 68 20 59 59 S 30 48 29.74 1007 10 16 0.00 0.00
4:54 pm 16:54 Mostly Cloudy with Thunderstorms 79 26.1 72 22.2 79 79 SW 21 33 29.86 1011 4 6 0.02 0.51
4:58 pm 16:58 Mostly Cloudy with Strong Thunderstorms 78 25.6 73 22.8 85 85 WSW 17 28 29.85 1011 2 3 0.02 0.51
5:16 pm 17:16 Cloudy with Thunderstorms 76 24.4 72 22.2 88 88 NW 13 20 29.83 1010 10 16 0.10 2.54
5:27 pm 17:27 Mostly Cloudy with Nearby Thunderstorms 76 24.4 70 21.1 82 82 Calm 29.83 1010 10 16 0.10 2.54
5:40 pm 17:40 Mostly Sunny 76 24.4 71 21.7 85 85 S 5 7 29.83 1010 10 16 0.10 2.54
5:54 pm 17:54 Sunny 75 23.9 72 22.2 90 90 S 8 13 29.85 1011 10 16 0.10 2.54
6:54 pm 18:54 Sunny 75 23.9 70 21.1 84 84 S 9 15 29.83 1010 10 16 0.00 0.00
7:54 pm 19:54 Sunny 76 24.4 68 20 77 77 S 8 13 29.84 1010 10 16 0.00 0.00
8:54 pm 20:54 Sunny 77 25 68 20 74 74 S 5 7 29.84 1010 10 16 0.00 0.00
9:54 pm 21:54 Clear 75 23.9 69 20.6 82 82 N 14 22 29.87 1012 10 16 0.00 0.00
10:54 pm 22:54 Mostly Cloudy 74 23.3 71 21.7 91 91 NNW 13 20 29.93 1014 8 13 0.00 0.00
11:44 pm 23:44 Partly Cloudy with Nearby Thunderstorms 73 22.8 69 20.6 87 87 ESE 7 11 29.91 1013 10 16 0.00 0.03
11:54 pm 23:54 Mostly Cloudy with Nearby Thunderstorms 73 22.8 69 20.6 87 87 ESE 9 15 29.89 1012 8 13 0.00 0.03

Powered by AerisWeather